Location: Newark
(44.3681°N, 100.3364°W)
Time: 00:57:32
(UTC+00:00)

deb Explorer IX - Pass Details

Date: 18 February 2020
Orbit: 547 x 1100 km, 38.8° (Epoch: 01 April)

Event Time Altitude Azimuth Distance (km) Brightness Sun altitude
Rises 22:31:34 0° 267° (W) 2,752 ? 15.7°
Reaches altitude 10° 22:33:58 10° 256° (WSW) 1,896 ? 15.4°
Maximum altitude 22:37:43 29° 195° (SSW) 1,146 ? 14.8°
Drops below altitude 10° 22:41:51 10° 136° (SE) 2,107 ? 14.2°
Sets 22:44:39 0° 126° (SE) 3,121 ? 13.8°
